Погода в Гори

Погода в Гори : погода сейчас, прогноз погоды и архив. Всё, что Вы хотите узнать о погоде в Гори!

Поиск расширенной информации на нашем сайте:

Другие новости

Новости СМИ2

Главная страница сайта

Новости сайта

02.10.2013

Напоминаем, что на нашем новом сайте вы можете получить высокодетализированные прогнозы погоды по пунктам России, СНГ и мира (включающие важные для авиации метеовеличины, такие как направление и скорость ветра, видимость, явления погоды, количество и форма облачности, нижняя и верхняя граница облачности), а также ознакомиться с разнообразными материалами по авиационной метеорологии и подборкой полезных ссылок на эту тему.

Сайт Метеоцентр.Азия посвящён разработке технологий оптимизации авиаметеорологического обслуживания, включая проектирование и перспективное создание нескольких автоматизированных авиаметеорологических систем:
- система выпуска высокодетальных прогностических карт явлений погоды для нижнего воздушного пространства по России и ближнему зарубежью;
- система верификации прогнозов TAF (выпускаемых синоптиками официальных АМСГ РФ и ближнего зарубежья) и AUTOTAF (выпускаемых сайтом Метеоцентр.Азия) - выявление ошибок, онлайн-сопоставление с фактической погодой METAR, автоматическое внесение коррективов в прогнозы при резком отклонении фактической погоды от прогноза, подсчёт оправдываемости прогнозов по элементам и в целом;
- система обработки, анализа и отображения авиаметеорологической информации для применения провайдерами метеорологической информации.


Погода в Гори - сегодня

Время (UTC), дата Ветер
(°,м/с) 
Видим.   Явления Облачность Т
(°С)
Тd
(°С)
f(%) Тe
(°С)
Pmin
(гПа)
dP
(гПа)
Po
(мм)
O2
(г/м3)
Тmin Tmax R s Состояние
почвы
18 17.01.17 тихо ()   н/о    ясно 
-3.2 -4.5 91 -3  1028.4  0.1  715  292    +8.1       
21 17.01.17 тихо ()   н/о    ясно 
-5.6 -5.6 100 -6  1029.1  715  294           
00 18.01.17 тихо ()   н/о    ясно 
-6.5 -6.5 100 -7  1029.8  0.5  715  296           
03 18.01.17 320 (СЗ) н/о    ясно 
-7.3 -7.3 100 -9  1031  0.8  713  296  -7.3         
06 18.01.17 тихо ()   4000 м  дымка  10/10 600 м 
[Sc]
-4.5 -4.5 100 -5  1030.3  0.2  716  294  -7.8         
09 18.01.17 090 (В) 4000 м  дымка  10/10 600 м 
[Sc]
+1 -1 86 -1  1028.2  -0.4  715  287           
12 18.01.17 090 (В) 4000 м  дымка  10/10 600 м 
[Sc]
+2.5 -1.4 75 1026.7  -1.1  715  285           
15 18.01.17 070 (В) н/о    9/9 600 м 
[Sc]
+0.9 -2 81 -2  1027.6  0.5  715  287    +3.5       
18 18.01.17 120 (ЮВ) н/о    9/5 600 м средняя 
[Sc|Ac und]
+0.5 -1.5 86 -1  1028.8  716  288    +3.5       
21 18.01.17 тихо ()   н/о    10/10 600 м 
[Sc]
+0.1 -1 92 1028.7  -0.2  716  288           
06 19.01.17 тихо ()   4000 м  слаб. снег  10/10 600 м 
[Ns]
-0.1 -0.1 100 -0  1029  0.8  716  288  -0.6    равномерный
сухой снег
100% 
09 19.01.17 100 (В) 4000 м  слаб. снег  10/10 600 м 
[Ns]
+1 +0.7 98 1029.2  0.4  716  287           
12 19.01.17 тихо ()   2000 м  слаб. снег  10/10 600 м 
[Ns]
+1.2 +0.7 96 +1  1028.5  -0.5  716  287           
18 19.01.17 тихо ()   н/о  слаб. снег  10/10 600 м 
[Ns]
+0.2 +0.2 100 1029.5  0.4  716  288    +2.4     
00 20.01.17 тихо ()   н/о  снег  10/10 600 м 
[Ns]
+0.2 +0.2 100 1029.8  0.3  716  288           
06 20.01.17 тихо ()   0500 м  слаб. снег  ?/?  
+0.5 +0.5 100 +1  1030.5  0.6  717  288  +0.1    равномерный
сухой снег
100% 
09 20.01.17 тихо ()   2000 м  слаб. снег  10/10 600 м 
[Ns]
+1.1 +1.1 100 +1  1030.6  0.3  717  288        равномерный
сухой снег
100% 
12 20.01.17 120 (ЮВ) 10 км  {снег}  10/10 600 м 
[Sc]
+2 +0.9 92 +1  1029.5  -0.8  716  286           
18 20.01.17 270 (З) н/о  слаб. снег  10/10 600 м 
[Ns]
+0.8 +0.3 96 1029.8  0.9  716  288    +2.5  равномерный
сухой снег
100% 
21 20.01.17 270 (З) н/о    8/3 600 м средняя 
[Sc|Ac und]
+1.3 -0.7 86 1029.6  716  287           
00 21.01.17 270 (З) н/о    8/3 600 м средняя 
[Sc|Ac und]
+0.6 -0.8 90 -2  1030.3  716  288           
06 21.01.17 270 (З) 20000 м  {снег}  4/0 средняя 
[Ac und]
+1 -1 86 -3  1027.5  -0.8  715  287  +0.5    0.0  равномерный
сухой снег
100% 
09 21.01.17 270 (З) 20000 м    5/3 600 м средняя 
[Sc|Ac und]
+2.3 -2 73 -2  1027.9  0.6  715  286           
12 21.01.17 270 (З) 9{15}  20000 м  {снег}  4/3 600 м средняя 
[Sc|Ac und]
+2.7 -2.5 69 -1  1026.8  -0.9  715  285           
18 21.01.17 270 (З) н/о    9/9 600 м 
[Sc]
-0.2 -2.6 84 -5  1028.3  0.5  715  289    +3.2  0.0     
Время (UTC), дата Ветер
(°,м/с) 
Видим.   Явления Облачность Т
(°С)
Тd
(°С)
f(%) Тe
(°С)
Pmin
(гПа)
dP
(гПа)
Po
(мм)
O2
(г/м3)
Тmin Tmax R s Состояние
почвы

Для получения пояснительной информации подведите курсор к названию столбца.

ПОГОДА в Гори - архив

Всё, что Вы хотите узнать о погоде в Гори - удобно и подробно!

Выберите нужную дату (начиная с 1 января 2015* года) и нажмите кнопку "Найти".
Будут отображены архивные сводки погоды по пункту Гори, начиная с указанной даты.


Отображать данные в формате CSV (для использования в таблицах Excel)


Внимание! Наш архив погоды предназначен исключительно для личного некоммерческого использования в познавательных целях. Если Вам необходимы официальные справки о состоянии погоды (для производственных, юридических, коммерческих и т.п. целей), обращайтесь в органы Росгидромета.

*Примечание: данная дата относится к архиву по метеостанциям СССР (Россия, СНГ, Балтия).
Архив по метеостанциям Зарубежной Европы и Азии (кроме Китая) хранится 10 дней, по другим регионам земного шара (Китай, Африка, Америка, Австралия, Океания) - 1 день.

Гори - район местоположения метеостанции


Название, широта, долгота, высота метеостанции:
Гори 42°ш. 44.1°д. 590 м над ур. моря [Грузия]

Дополнительная информация

В oтличие oт бoльшинства пoгoдных сайтoв мы публикуем пoдрoбную метеoинфoрмацию в детальнoм прoфессиoнальнoм фoрмате.

Характеристики температуры и влажнoсти вoздуха измеряются на высoте 2 м в тени вдали oт зданий и деревьев.
Скoрoсть ветра измеряется на высoте 10 м (на урoвне рoста челoвека скoрoсть ветра ниже в 1.5-2 раза). Если метеoстанция нахoдится в гoрoде или в лесу, тo скoрoсть ветра занижена на 2-4 м/с пo сравнению с oткрытым местoм. Скoрoсть ветра над акватoриями крупных рек и oзёр, а также на вершинах хoлмoв на 2-5 м/с выше, чем в oбычных услoвиях.
Атмoсфернoе давление в разных тoчках местнoсти мoжет значительнo oтличаться oт давления на метеoстанции, в зависимoсти oт услoвий рельефа (при пoдъёме на 10 м давление пoнижается примернo на 1 мм рт.ст.).